Hourly Weather Zhuravka

Today, 12 July, Sunday

Time Temperature Precipitation Wind Pressure Humidity
00:00 +18°C° 0 mm 3 mps 745 mmHg 91%
01:00 +18°C° 0 mm 3 mps 744 mmHg 91%
02:00 +17°C° 0 mm 3 mps 744 mmHg 91%
03:00 +17°C° 0 mm 3 mps 744 mmHg 91%
04:00 +17°C° 0 mm 2 mps 744 mmHg 90%
05:00 +18°C° 0 mm 2 mps 744 mmHg 89%
06:00 +18°C° 0 mm 2 mps 744 mmHg 88%
07:00 +19°C° 0 mm 2 mps 744 mmHg 84%
08:00 +21°C° 0 mm 3 mps 744 mmHg 80%
09:00 +22°C° 0 mm 3 mps 744 mmHg 76%
10:00 +24°C° 0 mm 3 mps 743 mmHg 73%
11:00 +25°C° 0 mm 3 mps 743 mmHg 70%
12:00 +26°C° 0 mm 3 mps 743 mmHg 66%
13:00 +27°C° 0 mm 3 mps 743 mmHg 65%
14:00 +27°C° 0 mm 3 mps 742 mmHg 65%
15:00 +28°C° 0 mm 3 mps 742 mmHg 63%
16:00 +27°C° 0 mm 2 mps 742 mmHg 65%
17:00 +27°C° 0 mm 2 mps 742 mmHg 68%
18:00 +27°C° 0 mm 2 mps 741 mmHg 70%
19:00 +25°C° 0 mm 2 mps 741 mmHg 73%
20:00 +23°C° 0 mm 1 mps 741 mmHg 76%
21:00 +21°C° 0 mm 1 mps 741 mmHg 79%
22:00 +21°C° 0 mm 1 mps 741 mmHg 80%
23:00 +20°C° 0 mm 1 mps 741 mmHg 81%

Tomorrow, 13 July, Monday

Time Temperature Precipitation Wind Pressure Humidity
00:00 +20°C° 0 mm 1 mps 740 mmHg 82%
01:00 +19°C° 0 mm 1 mps 740 mmHg 83%
02:00 +19°C° 0 mm 1 mps 740 mmHg 85%
03:00 +18°C° 0 mm 1 mps 740 mmHg 86%
04:00 +19°C° 0 mm 1 mps 740 mmHg 87%
05:00 +19°C° 0 mm 1 mps 739 mmHg 87%
06:00 +19°C° 0 mm 1 mps 739 mmHg 88%
07:00 +20°C° 0 mm 1 mps 739 mmHg 85%
08:00 +21°C° 0 mm 2 mps 739 mmHg 82%
09:00 +23°C° 0 mm 2 mps 739 mmHg 79%
10:00 +24°C° 0.1 mm 2 mps 739 mmHg 76%
11:00 +25°C° 0.1 mm 2 mps 739 mmHg 72%
12:00 +25°C° 0.1 mm 2 mps 739 mmHg 69%
13:00 +25°C° 1.1 mm 2 mps 738 mmHg 70%
14:00 +25°C° 1.1 mm 2 mps 738 mmHg 71%
15:00 +25°C° 1.1 mm 2 mps 738 mmHg 72%
16:00 +24°C° 0.9 mm 2 mps 738 mmHg 77%
17:00 +23°C° 0.9 mm 2 mps 738 mmHg 81%
18:00 +23°C° 0.9 mm 1 mps 737 mmHg 85%
19:00 +21°C° 0.2 mm 2 mps 737 mmHg 87%
20:00 +20°C° 0.2 mm 2 mps 737 mmHg 90%
21:00 +19°C° 0.2 mm 2 mps 738 mmHg 93%
22:00 +18°C° 0.3 mm 3 mps 737 mmHg 93%
23:00 +18°C° 0.3 mm 3 mps 737 mmHg 94%

Day after tomorrow, 14 July, Tuesday

Time Temperature Precipitation Wind Pressure Humidity
00:00 +18°C° 0.3 mm 4 mps 737 mmHg 95%
01:00 +18°C° 0.3 mm 4 mps 736 mmHg 95%
02:00 +17°C° 0.3 mm 4 mps 736 mmHg 96%
03:00 +17°C° 0.3 mm 4 mps 736 mmHg 96%
04:00 +17°C° 0.6 mm 4 mps 736 mmHg 96%
05:00 +18°C° 0.6 mm 4 mps 735 mmHg 96%
06:00 +18°C° 0.6 mm 4 mps 735 mmHg 96%
07:00 +18°C° 0.2 mm 4 mps 735 mmHg 96%
08:00 +18°C° 0.2 mm 4 mps 735 mmHg 96%
09:00 +18°C° 0.2 mm 3 mps 735 mmHg 96%
10:00 +18°C° 0.7 mm 3 mps 735 mmHg 96%
11:00 +19°C° 0.7 mm 4 mps 735 mmHg 95%
12:00 +19°C° 0.7 mm 4 mps 735 mmHg 95%
13:00 +19°C° 0.6 mm 4 mps 735 mmHg 95%
14:00 +19°C° 0.6 mm 4 mps 734 mmHg 94%
15:00 +20°C° 0.6 mm 4 mps 734 mmHg 94%
16:00 +20°C° 1.5 mm 4 mps 734 mmHg 95%
17:00 +19°C° 1.5 mm 4 mps 733 mmHg 95%
18:00 +19°C° 1.5 mm 4 mps 733 mmHg 96%
19:00 +19°C° 0.6 mm 3 mps 733 mmHg 96%
20:00 +18°C° 0.6 mm 3 mps 732 mmHg 97%
21:00 +18°C° 0.6 mm 2 mps 732 mmHg 97%
22:00 +18°C° 0.3 mm 2 mps 732 mmHg 97%
23:00 +18°C° 0.3 mm 2 mps 731 mmHg 97%

15 July, Wednesday

Time Temperature Precipitation Wind Pressure Humidity
00:00 +18°C° 0.3 mm 1 mps 731 mmHg 97%
01:00 +18°C° 0 mm 1 mps 731 mmHg 97%
02:00 +18°C° 0 mm 1 mps 731 mmHg 97%
03:00 +16°C° 0 mm 1 mps 731 mmHg 97%
04:00 +17°C° 0 mm 2 mps 731 mmHg 97%
05:00 +17°C° 0 mm 2 mps 731 mmHg 97%
06:00 +17°C° 0 mm 2 mps 730 mmHg 97%
07:00 +17°C° 0.2 mm 3 mps 731 mmHg 96%
08:00 +18°C° 0.2 mm 3 mps 731 mmHg 96%
09:00 +18°C° 0.2 mm 3 mps 731 mmHg 95%
10:00 +18°C° 0.7 mm 4 mps 731 mmHg 92%
11:00 +18°C° 0.7 mm 4 mps 731 mmHg 90%
12:00 +19°C° 0.7 mm 5 mps 731 mmHg 88%
13:00 +19°C° 0.5 mm 5 mps 731 mmHg 87%
14:00 +19°C° 0.5 mm 5 mps 731 mmHg 85%
15:00 +20°C° 0.5 mm 5 mps 731 mmHg 84%
16:00 +19°C° 0.5 mm 5 mps 732 mmHg 86%
17:00 +19°C° 0.5 mm 4 mps 732 mmHg 87%
18:00 +18°C° 0.5 mm 4 mps 732 mmHg 89%
19:00 +17°C° 0.2 mm 4 mps 732 mmHg 91%
20:00 +15°C° 0.2 mm 5 mps 732 mmHg 93%
21:00 +15°C° 0.2 mm 5 mps 732 mmHg 95%
22:00 +15°C° 0.1 mm 5 mps 732 mmHg 94%
23:00 +15°C° 0.1 mm 5 mps 732 mmHg 94%

16 July, Thursday

Time Temperature Precipitation Wind Pressure Humidity
00:00 +15°C° 0.1 mm 5 mps 732 mmHg 94%
01:00 +15°C° 0 mm 5 mps 733 mmHg 94%
02:00 +15°C° 0 mm 6 mps 733 mmHg 93%
03:00 +14°C° 0 mm 6 mps 733 mmHg 93%
04:00 +14°C° 0 mm 6 mps 733 mmHg 93%
05:00 +14°C° 0 mm 6 mps 733 mmHg 94%
06:00 +13°C° 0 mm 6 mps 733 mmHg 94%
07:00 +13°C° 0 mm 6 mps 734 mmHg 94%
08:00 +14°C° 0 mm 6 mps 734 mmHg 93%
09:00 +14°C° 0 mm 6 mps 734 mmHg 93%
10:00 +14°C° 0 mm 5 mps 734 mmHg 91%
11:00 +14°C° 0 mm 5 mps 735 mmHg 90%
12:00 +15°C° 0 mm 5 mps 735 mmHg 89%
13:00 +15°C° 0 mm 5 mps 735 mmHg 89%
14:00 +15°C° 0 mm 5 mps 736 mmHg 88%
15:00 +15°C° 0 mm 6 mps 736 mmHg 88%
16:00 +15°C° 0 mm 5 mps 736 mmHg 88%
17:00 +15°C° 0 mm 5 mps 736 mmHg 87%
18:00 +15°C° 0 mm 5 mps 736 mmHg 87%
19:00 +15°C° 0 mm 5 mps 736 mmHg 87%
20:00 +14°C° 0 mm 5 mps 736 mmHg 88%
21:00 +14°C° 0 mm 4 mps 736 mmHg 88%
22:00 +14°C° 0 mm 5 mps 736 mmHg 90%
23:00 +13°C° 0 mm 5 mps 736 mmHg 91%

17 July, Friday

Time Temperature Precipitation Wind Pressure Humidity
00:00 +13°C° 0 mm 5 mps 736 mmHg 92%
01:00 +13°C° 0 mm 5 mps 736 mmHg 92%
02:00 +13°C° 0 mm 5 mps 736 mmHg 92%
03:00 +13°C° 0 mm 5 mps 736 mmHg 91%
04:00 +13°C° 0 mm 5 mps 736 mmHg 92%
05:00 +13°C° 0 mm 5 mps 736 mmHg 92%
06:00 +13°C° 0 mm 5 mps 736 mmHg 92%
07:00 +14°C° 0.1 mm 5 mps 736 mmHg 92%
08:00 +14°C° 0.1 mm 5 mps 736 mmHg 92%
09:00 +14°C° 0.1 mm 5 mps 737 mmHg 92%
10:00 +14°C° 0 mm 5 mps 737 mmHg 91%
11:00 +15°C° 0 mm 5 mps 737 mmHg 90%
12:00 +15°C° 0 mm 5 mps 737 mmHg 88%
13:00 +16°C° 0 mm 5 mps 737 mmHg 86%
14:00 +16°C° 0 mm 5 mps 738 mmHg 84%
15:00 +18°C° 0 mm 4 mps 738 mmHg 82%
16:00 +18°C° 0 mm 4 mps 738 mmHg 82%
17:00 +19°C° 0 mm 4 mps 738 mmHg 81%
18:00 +19°C° 0 mm 3 mps 738 mmHg 81%
19:00 +18°C° 0 mm 3 mps 738 mmHg 84%
20:00 +17°C° 0 mm 2 mps 738 mmHg 88%
21:00 +16°C° 0 mm 2 mps 738 mmHg 91%
22:00 +15°C° 0 mm 2 mps 739 mmHg 92%
23:00 +15°C° 0 mm 2 mps 739 mmHg 92%
Show more